SL-16 DEB, 29100

Orbit data source: Space-Track

SL-16 DEB, 29100 is space debris in LEO originally from a launch on Fri, 26 Mar 1993 UTC launched from the Tyuratam Missile And Space Complex (TTMTR). Debris objects in space refer to the collection of defunct objects orbiting the Earth. Examples of debris include non-operational satellites, rocket bodies, and fragments generated from explosions, collisions, or faulty payload assembly.

Loading next visibility...
Identifier
29100, 1993-016AP
Orbit
LEO
Country
Flag of CISCIS
Related business
Manufacturer
Unknown
Mission
Spacecraft
Bus & Motor
Unknown
Mass
Unknown
Launch date (UTC)
1993-03-26 (32 years ago)
Launch vehicle
Unknown
Launch site
Tyuratam Missile And Space Complex (TTMTR)
Object type
Payload
Rocket body
Debris
Shape & HBR
Unknown
Radar Cross Section
Small (<0.1 m²)

Expand to show TLE details & history
Last TLE update: 4 days ago

TLE from 4 days ago
0 SL-16 DEB
1 29100U 93016AP  25255.53182580  .00000538  00000-0  31486-3 0  9993
2 29100  70.7338 301.1845 0069295 124.5518 236.2167 14.11737663192223
Epoch: 2025-09-12T12:45Z
TLE epoch observation values (Epoch: 2025-09-12T12:45:49.749Z)
Latitude
-0.00005°
Longitude
117.949°
Altitude
883.918 km
Speed
7.396 km/s
True Right ascension
20h 04m 44s
True Declination
0° 00' 00"
Sunlit
Object was in full shadow at epoch
Visualization orbit readout
Latitude
Unknown
Longitude
Unknown
Altitude
Unknown
Speed
Unknown
Apparent Right ascension
Unknown
Apparent Declination
Unknown
Sunlit
N/A
Visualization observer readout
Local Sidereal Time
23:07:10
Azimuth
Unknown
Elevation
Unknown
Doppler factor
Unknown
Orbital elements
Apogee altitude
901.483 km
Perigee altitude
801.289 km
Semi-major axis
7,229.523 km
Eccentricity
0.00693
Inclination
70.7338°
RAAN
301.1845°
Arg. of periapsis
124.5518°
True anomaly
235.5599°
Mean anomaly
236.2167°
Eccentric anomaly
235.88798°
Mean motion
3.53085 °/min
Orbital period
101.96 mins
BSTAR
0.00031486
Loading maneuver chart data...
Computing Atmospheric mass density...
Loading historical data...
Loading historical data...
Loading historical data...
Loading historical data...
Loading historical data...
Loading historical data...
Loading historical data...

Documentation

Showing up to 5 results
|